User: anonymous   Login
Location: Unspecified
(0.0000°N, 0.0000°E)
Time: 16:41:06
(UTC+00:00)
Language:

OPTUS 1C - Orbit

View from above orbital plane
View from above orbital plane
View from above satellite
View from above satellite

Ground track
Ground track

The orbit data is extracted from the following two-line orbital elements,

1 27831U 03028B   14302.47028596 -.00000155  00000-0  00000+0 0  2652
2 27831 000.0507 131.7019 0003968 063.3484 168.0137 01.00271299 41722
Epoch (UTC): 29 October 2014 11:17:12
Eccentricity: 0.0003968
inclination: 0.0507°
perigee height: 35769 km
apogee height: 35803 km
right ascension of ascending node: 131.7019°
argument of perigee: 63.3484°
revolutions per day: 1.00271299
mean anomaly at epoch: 168.0137°
orbit number at epoch: 4172

The dashed part of the orbit path shows where the satellite is in the earth's shadow,  

DLR